Georgetown, DE

4:05 PM EDT on September 28, 2016 (GMT -0400)
Sussex County

Weather History for KGED - February, 2014

Change the Weather History Date:

Saturday, February 8, 2014

  Actual Average Record
Temperature  
Mean Temperature 29 °F 36 °F  
Max Temperature 33 °F 45 °F 69 °F (1965)
Min Temperature 24 °F 27 °F 3 °F (1967)
Degree Days  
Heating Degree Days 36 29  
Month to date heating degree days 228 232  
Since 1 July heating degree days 2774 2742  
Cooling Degree Days 0 0  
Month to date cooling degree days 0 0  
Year to date cooling degree days 0 0  
Moisture  
Dew Point 17 °F    
Average Humidity 62    
Maximum Humidity 84    
Minimum Humidity 39    
Precipitation  
Precipitation 0.00 in 0.09 in 1.45 in (1961)
Month to date precipitation 1.73 0.77  
Year to date precipitation 4.77 3.69  
Sea Level Pressure  
Sea Level Pressure 30.29 in    
Wind  
Wind Speed 6 mph (NNE)    
Max Wind Speed 14 mph    
Max Gust Speed 17 mph    
Visibility 10 miles    
Events      
T = Trace of Precipitation, MM = Missing Value Source: NWS Daily Summary

Daily Weather History Graph

Daily Weather History Graph

Search for Another Location

Airport or City:

Trip Planner

Search our weather history database for the weather conditions in past years. The results will help you decide how hot, cold, wet, or windy it might be!

Date:

Astronomy

Feb. 08, 2014 Rise Set
Actual Time 7:00 AM EST 5:31 PM EST
Civil Twilight 6:32 AM EST 5:58 PM EST
Nautical Twilight 6:01 AM EST 6:30 PM EST
Astronomical Twilight 5:30 AM EST 7:01 PM EST
Moon 12:24 PM EST (2/8) 2:09 AM EST (2/8)
Length of Visible Light 11h 26m
Length of Day
10h 30m
Waxing Gibbous, 68% of the Moon is Illuminated
Feb 8
Waxing Gibbous
Feb 14
Full
Feb 22
Last Quarter
Mar 1
New
Mar 8
First Quarter

Hourly Weather History & Observations

Time (EST) Temp. Windchill Dew Point Humidity Pressure Visibility Wind Dir Wind Speed Gust Speed Precip Events Conditions
12:54 AM 27.0 °F - 23.0 °F 85% 30.34 in 9.0 mi Calm Calm - N/A   Clear
1:54 AM 30.0 °F 26.5 °F 21.9 °F 72% 30.35 in 9.0 mi North 3.5 mph - N/A   Clear
2:54 AM 30.0 °F 25.2 °F 21.9 °F 72% 30.35 in 9.0 mi North 4.6 mph - N/A   Clear
3:54 AM 30.0 °F 24.1 °F 19.9 °F 66% 30.34 in 10.0 mi North 5.8 mph - N/A   Clear
4:54 AM 30.0 °F 22.4 °F 17.1 °F 59% 30.32 in 10.0 mi NNE 8.1 mph - N/A   Clear
5:54 AM 30.0 °F 24.1 °F 17.1 °F 59% 30.33 in 10.0 mi North 5.8 mph - N/A   Clear
6:54 AM 30.0 °F 25.2 °F 17.1 °F 59% 30.34 in 10.0 mi NNE 4.6 mph - N/A   Clear
7:54 AM 28.9 °F 20.4 °F 14.0 °F 54% 30.35 in 10.0 mi NNE 9.2 mph - N/A   Clear
8:54 AM 30.0 °F 23.2 °F 12.9 °F 49% 30.36 in 10.0 mi NNE 6.9 mph - N/A   Clear
9:54 AM 30.0 °F 21.7 °F 12.9 °F 49% 30.34 in 10.0 mi NNE 9.2 mph - N/A   Overcast
10:54 AM 30.0 °F 22.4 °F 12.0 °F 47% 30.32 in 10.0 mi NE 8.1 mph - N/A   Mostly Cloudy
11:54 AM 30.0 °F 23.2 °F 10.0 °F 43% 30.31 in 10.0 mi NNE 6.9 mph - N/A   Overcast
12:54 PM 30.9 °F 26.2 °F 10.9 °F 43% 30.30 in 10.0 mi NE 4.6 mph - N/A   Overcast
1:54 PM 32.0 °F 26.4 °F 10.9 °F 42% 30.29 in 10.0 mi North 5.8 mph - N/A   Overcast
2:54 PM 30.9 °F 22.8 °F 14.0 °F 50% 30.25 in 10.0 mi NNE 9.2 mph - N/A   Overcast
3:54 PM 30.9 °F 22.8 °F 15.1 °F 52% 30.22 in 10.0 mi NNE 9.2 mph - N/A   Overcast
4:54 PM 28.9 °F 19.8 °F 19.0 °F 67% 30.22 in 10.0 mi NE 10.4 mph - N/A   Overcast
5:54 PM 28.0 °F 20.0 °F 19.9 °F 72% 30.23 in 10.0 mi NE 8.1 mph - N/A   Overcast
6:54 PM 28.0 °F 22.8 °F 19.9 °F 72% 30.22 in 10.0 mi NNE 4.6 mph - N/A   Overcast
7:54 PM 28.0 °F 22.8 °F 21.0 °F 75% 30.22 in 10.0 mi Variable 4.6 mph - N/A   Overcast
8:54 PM 28.0 °F 22.8 °F 19.9 °F 72% 30.21 in 10.0 mi NNW 4.6 mph - N/A   Mostly Cloudy
9:54 PM 27.0 °F - 19.9 °F 75% 30.21 in 9.0 mi Calm Calm - N/A   Clear
10:54 PM 24.1 °F - 19.9 °F 84% 30.21 in 7.0 mi Calm Calm - N/A   Clear
11:54 PM 25.0 °F 20.7 °F 19.9 °F 81% 30.22 in 6.0 mi NW 3.5 mph - N/A   Haze